Location: Maddington
(51.2000°N, 1.9167°W)
Time: 15:26:27
(UTC+00:00)

Cosmos 1125 Rocket - Pass Details

Date: 26 June 2021
Orbit: 757 x 780 km, 74.0° (Epoch: 28 July)

Event Time Altitude Azimuth Distance (km) Brightness Sun altitude
Rises 02:27:14 0° 327° (NNW) 3,251 7.1 -9.6°
Reaches altitude 10° 02:29:57 10° 315° (NW) 2,324 6.2 -9.4°
Maximum altitude 02:34:12 25° 261° (W) 1,516 4.7 -9.0°
Enters shadow 02:38:17 11° 208° (SSW) 2,270 5.3 -8.7°
